Time,TemperatureF,DewpointF,PressureIn,WindDirection,WindDirectionDegrees,WindSpeedMPH,WindSpeedGustMPH,Humidity,HourlyPrecipIn,Conditions,Clouds,dailyrainin,SoftwareType,DateUTC
2013-04-23 00:00:00,58.4,52.6,29.93,ESE,112,0.0,3.0,81,0.00,,---,0.00,VWS V14.01,2013-04-23 07:00:00,
2013-04-23 00:08:00,58.4,53.0,29.93,ESE,109,1.0,6.0,81,0.00,,,0.00,weatherlink.com 1.10,2013-04-23 07:08:00,
2013-04-23 00:15:00,58.4,52.6,29.93,ESE,112,1.0,5.0,81,0.00,,---,0.00,VWS V14.01,2013-04-23 07:15:00,
2013-04-23 00:23:00,58.4,53.0,29.93,ESE,107,0.0,3.0,81,0.00,,,0.00,weatherlink.com 1.10,2013-04-23 07:23:00,
2013-04-23 00:30:00,58.4,52.6,29.92,East,90,1.0,3.0,81,0.00,,---,0.00,VWS V14.01,2013-04-23 07:30:00,
2013-04-23 00:38:00,58.3,53.0,29.92,ESE,110,2.0,3.0,81,0.00,,,0.00,weatherlink.com 1.10,2013-04-23 07:38:00,
2013-04-23 00:45:00,58.3,52.5,29.92,ESE,112,1.0,4.0,81,0.00,,---,0.00,VWS V14.01,2013-04-23 07:45:00,
2013-04-23 00:54:00,58.3,53.0,29.92,ESE,115,0.0,7.0,81,0.00,,,0.00,weatherlink.com 1.10,2013-04-23 07:54:00,
2013-04-23 01:00:00,58.3,52.5,29.92,ESE,112,1.0,7.0,81,0.00,,---,0.00,VWS V14.01,2013-04-23 08:00:00,
2013-04-23 01:09:00,58.3,53.0,29.92,East,83,0.0,2.0,81,0.00,,,0.00,weatherlink.com 1.10,2013-04-23 08:09:00,
2013-04-23 01:15:00,58.2,52.4,29.92,East,90,1.0,4.0,81,0.00,,---,0.00,VWS V14.01,2013-04-23 08:15:00,
2013-04-23 01:24:00,58.3,52.0,29.92,ESE,107,2.0,3.0,80,0.00,,,0.00,weatherlink.com 1.10,2013-04-23 08:24:00,
2013-04-23 01:30:00,58.3,52.2,29.92,ESE,112,1.0,4.0,80,0.00,,---,0.00,VWS V14.01,2013-04-23 08:30:00,
2013-04-23 01:39:00,58.3,52.0,29.92,ESE,115,1.0,4.0,80,0.00,,,0.00,weatherlink.com 1.10,2013-04-23 08:39:00,
2013-04-23 01:45:00,58.3,52.2,29.91,ESE,112,1.0,4.0,80,0.00,,---,0.00,VWS V14.01,2013-04-23 08:45:00,
2013-04-23 01:54:00,58.2,52.0,29.91,ESE,109,0.0,5.0,80,0.00,,,0.00,weatherlink.com 1.10,2013-04-23 08:54:00,
2013-04-23 02:00:00,58.2,52.4,29.91,ESE,112,1.0,6.0,81,0.00,,---,0.00,VWS V14.01,2013-04-23 09:00:00,
2013-04-23 02:09:00,58.2,52.0,29.91,ESE,116,0.0,7.0,81,0.00,,,0.00,weatherlink.com 1.10,2013-04-23 09:09:00,
2013-04-23 02:15:00,58.1,52.3,29.91,ESE,112,1.0,7.0,81,0.00,,---,0.00,VWS V14.01,2013-04-23 09:15:00,
2013-04-23 02:24:00,58.0,52.0,29.90,SE,140,0.0,3.0,80,0.00,,,0.00,weatherlink.com 1.10,2013-04-23 09:24:00,
2013-04-23 02:30:00,58.0,52.2,29.90,SE,135,0.0,3.0,81,0.00,,---,0.00,VWS V14.01,2013-04-23 09:30:00,
2013-04-23 02:39:00,57.8,52.0,29.90,SSE,155,1.0,3.0,80,0.00,,,0.00,weatherlink.com 1.10,2013-04-23 09:39:00,
2013-04-23 02:45:00,57.8,51.7,29.90,South,180,1.0,4.0,80,0.00,,---,0.00,VWS V14.01,2013-04-23 09:45:00,
2013-04-23 02:54:00,57.8,52.0,29.90,ESE,115,1.0,3.0,80,0.00,,,0.00,weatherlink.com 1.10,2013-04-23 09:54:00,
2013-04-23 03:00:00,57.8,51.7,29.90,ESE,112,0.0,4.0,80,0.00,,---,0.00,VWS V14.01,2013-04-23 10:00:00,
2013-04-23 03:09:00,57.9,52.0,29.90,ENE,64,0.0,2.0,80,0.00,,,0.00,weatherlink.com 1.10,2013-04-23 10:09:00,
2013-04-23 03:15:00,57.9,51.8,29.90,East,90,0.0,2.0,80,0.00,,---,0.00,VWS V14.01,2013-04-23 10:15:00,
2013-04-23 03:24:00,57.9,52.0,29.90,ESE,117,0.0,6.0,80,0.00,,,0.00,weatherlink.com 1.10,2013-04-23 10:24:00,
2013-04-23 03:30:00,57.9,51.8,29.89,ESE,112,0.0,6.0,80,0.00,,---,0.00,VWS V14.01,2013-04-23 10:30:00,
2013-04-23 03:39:00,57.9,52.0,29.89,SE,140,0.0,2.0,80,0.00,,,0.00,weatherlink.com 1.10,2013-04-23 10:39:00,
2013-04-23 03:45:00,57.9,51.8,29.89,South,180,0.0,3.0,80,0.00,,---,0.00,VWS V14.01,2013-04-23 10:45:00,
2013-04-23 03:54:00,57.9,52.0,29.89,SSE,161,2.0,3.0,81,0.00,,,0.00,weatherlink.com 1.10,2013-04-23 10:54:00,
2013-04-23 04:00:00,57.9,52.1,29.89,ESE,112,0.0,3.0,81,0.00,,---,0.00,VWS V14.01,2013-04-23 11:00:00,
2013-04-23 04:09:00,57.9,52.0,29.89,SE,136,0.0,2.0,80,0.00,,,0.00,weatherlink.com 1.10,2013-04-23 11:09:00,
2013-04-23 04:15:00,57.9,51.8,29.89,ESE,112,0.0,3.0,80,0.00,,---,0.00,VWS V14.01,2013-04-23 11:15:00,
2013-04-23 04:24:00,57.9,52.0,29.89,SE,127,0.0,1.0,81,0.00,,,0.00,weatherlink.com 1.10,2013-04-23 11:24:00,
2013-04-23 04:30:00,58.0,52.2,29.89,SE,135,0.0,2.0,81,0.00,,---,0.00,VWS V14.01,2013-04-23 11:30:00,
2013-04-23 04:39:00,58.0,52.0,29.90,ESE,106,0.0,3.0,80,0.00,,,0.00,weatherlink.com 1.10,2013-04-23 11:39:00,
2013-04-23 04:45:00,58.0,51.9,29.90,ESE,112,0.0,5.0,80,0.00,,---,0.00,VWS V14.01,2013-04-23 11:45:00,
2013-04-23 04:54:00,58.0,52.0,29.89,ESE,105,0.0,2.0,81,0.00,,,0.00,weatherlink.com 1.10,2013-04-23 11:54:00,
2013-04-23 05:00:00,58.0,51.9,29.89,ESE,112,0.0,3.0,80,0.00,,---,0.00,VWS V14.01,2013-04-23 12:00:00,
2013-04-23 05:09:00,58.0,52.0,29.89,East,101,0.0,3.0,80,0.00,,,0.00,weatherlink.com 1.10,2013-04-23 12:09:00,
2013-04-23 05:15:00,58.1,52.0,29.89,East,90,1.0,3.0,80,0.00,,---,0.00,VWS V14.01,2013-04-23 12:15:00,
2013-04-23 05:24:00,58.0,52.0,29.89,ESE,117,0.0,3.0,80,0.00,,,0.00,weatherlink.com 1.10,2013-04-23 12:24:00,
2013-04-23 05:30:00,58.0,51.9,29.89,ESE,112,0.0,3.0,80,0.00,,---,0.00,VWS V14.01,2013-04-23 12:30:00,
2013-04-23 05:39:00,58.0,52.0,29.89,East,93,1.0,2.0,81,0.00,,,0.00,weatherlink.com 1.10,2013-04-23 12:39:00,
2013-04-23 05:45:00,58.0,52.2,29.90,ESE,112,0.0,3.0,81,0.00,,---,0.00,VWS V14.01,2013-04-23 12:45:00,
2013-04-23 05:54:00,58.0,52.0,29.90,ESE,121,2.0,2.0,81,0.00,,,0.00,weatherlink.com 1.10,2013-04-23 12:54:00,
2013-04-23 06:00:00,58.0,52.2,29.90,ESE,112,0.0,3.0,81,0.00,,---,0.00,VWS V14.01,2013-04-23 13:00:00,
2013-04-23 06:09:00,58.0,52.0,29.91,SE,136,0.0,2.0,81,0.00,,,0.00,weatherlink.com 1.10,2013-04-23 13:09:00,
2013-04-23 06:15:00,58.0,52.2,29.91,SSE,158,0.0,2.0,81,0.00,,---,0.00,VWS V14.01,2013-04-23 13:15:00,
2013-04-23 06:24:00,58.0,52.0,29.91,ESE,103,0.0,3.0,81,0.00,,,0.00,weatherlink.com 1.10,2013-04-23 13:24:00,
2013-04-23 06:30:00,58.0,52.2,29.91,SSE,158,0.0,3.0,81,0.00,,---,0.00,VWS V14.01,2013-04-23 13:30:00,
2013-04-23 06:39:00,58.0,52.0,29.91,SE,127,0.0,4.0,81,0.00,,,0.00,weatherlink.com 1.10,2013-04-23 13:39:00,
2013-04-23 06:45:00,58.0,52.2,29.92,ESE,112,0.0,4.0,81,0.00,,---,0.00,VWS V14.01,2013-04-23 13:45:00,
2013-04-23 06:54:00,58.1,52.0,29.92,SSE,161,0.0,3.0,81,0.00,,,0.00,weatherlink.com 1.10,2013-04-23 13:54:00,
2013-04-23 07:00:00,58.1,52.3,29.92,SSE,158,0.0,3.0,81,0.00,,---,0.00,VWS V14.01,2013-04-23 14:00:00,
2013-04-23 07:09:00,58.2,52.0,29.92,SSE,165,0.0,3.0,81,0.00,,,0.00,weatherlink.com 1.10,2013-04-23 14:09:00,
2013-04-23 07:15:00,58.3,52.5,29.93,South,180,0.0,3.0,81,0.00,,---,0.00,VWS V14.01,2013-04-23 14:15:00,
2013-04-23 07:24:00,58.4,53.0,29.93,ESE,115,0.0,3.0,81,0.00,,,0.00,weatherlink.com 1.10,2013-04-23 14:24:00,
2013-04-23 07:30:00,58.5,52.7,29.93,ESE,112,0.0,3.0,81,0.00,,---,0.00,VWS V14.01,2013-04-23 14:30:00,
2013-04-23 07:39:00,58.7,53.0,29.93,SE,129,0.0,1.0,80,0.00,,,0.00,weatherlink.com 1.10,2013-04-23 14:39:00,
2013-04-23 07:45:00,58.8,52.7,29.93,SE,135,0.0,2.0,80,0.00,,---,0.00,VWS V14.01,2013-04-23 14:45:00,
2013-04-23 07:54:00,59.1,53.0,29.93,ESE,105,1.0,4.0,79,0.00,,,0.00,weatherlink.com 1.10,2013-04-23 14:54:00,
2013-04-23 08:00:00,59.1,52.6,29.93,ESE,112,0.0,4.0,79,0.00,,---,0.00,VWS V14.01,2013-04-23 15:00:00,
2013-04-23 08:09:00,59.4,53.0,29.94,ESE,107,0.0,5.0,79,0.00,,,0.00,weatherlink.com 1.10,2013-04-23 15:09:00,
2013-04-23 08:15:00,59.5,52.6,29.94,East,90,1.0,5.0,78,0.00,,---,0.00,VWS V14.01,2013-04-23 15:15:00,
2013-04-23 08:24:00,59.7,53.0,29.94,SSE,154,0.0,1.0,78,0.00,,,0.00,weatherlink.com 1.10,2013-04-23 15:24:00,
2013-04-23 08:30:00,59.8,52.9,29.94,South,180,0.0,2.0,78,0.00,,---,0.00,VWS V14.01,2013-04-23 15:30:00,
2013-04-23 08:39:00,60.1,53.0,29.95,ENE,65,0.0,3.0,78,0.00,,,0.00,weatherlink.com 1.10,2013-04-23 15:39:00,
2013-04-23 08:45:00,60.2,53.0,29.94,ENE,68,0.0,3.0,77,0.00,,---,0.00,VWS V14.01,2013-04-23 15:45:00,
2013-04-23 08:54:00,60.4,53.0,29.94,East,82,0.0,3.0,77,0.00,,,0.00,weatherlink.com 1.10,2013-04-23 15:54:00,
2013-04-23 09:00:00,60.5,53.3,29.95,East,90,1.0,3.0,77,0.00,,---,0.00,VWS V14.01,2013-04-23 16:00:00,
2013-04-23 09:09:00,60.7,53.0,29.95,SSE,159,0.0,1.0,76,0.00,,,0.00,weatherlink.com 1.10,2013-04-23 16:09:00,
2013-04-23 09:15:00,60.8,53.2,29.95,East,90,0.0,2.0,76,0.00,,---,0.00,VWS V14.01,2013-04-23 16:15:00,
2013-04-23 09:24:00,61.1,54.0,29.95,ESE,122,0.0,1.0,76,0.00,,,0.00,weatherlink.com 1.10,2013-04-23 16:24:00,
2013-04-23 09:30:00,61.2,53.2,29.96,WSW,248,0.0,3.0,75,0.00,,---,0.00,VWS V14.01,2013-04-23 16:30:00,
2013-04-23 09:39:00,61.2,54.0,29.96,South,177,2.0,5.0,76,0.00,,,0.00,weatherlink.com 1.10,2013-04-23 16:39:00,
2013-04-23 09:45:00,61.3,53.3,29.96,South,180,1.0,5.0,75,0.00,,---,0.00,VWS V14.01,2013-04-23 16:45:00,
2013-04-23 09:54:00,61.5,54.0,29.96,South,177,2.0,8.0,75,0.00,,,0.00,weatherlink.com 1.10,2013-04-23 16:54:00,
2013-04-23 10:00:00,61.4,53.8,29.96,SSW,202,2.0,8.0,76,0.00,,---,0.00,VWS V14.01,2013-04-23 17:00:00,
2013-04-23 10:09:00,61.8,54.0,29.96,SSW,192,5.0,5.0,76,0.00,,,0.00,weatherlink.com 1.10,2013-04-23 17:09:00,
2013-04-23 10:15:00,62.0,54.0,29.96,SSW,202,2.0,8.0,75,0.00,,---,0.00,VWS V14.01,2013-04-23 17:15:00,
2013-04-23 10:24:00,62.6,55.0,29.96,SW,221,0.0,7.0,75,0.00,,,0.00,weatherlink.com 1.10,2013-04-23 17:24:00,
2013-04-23 10:30:00,62.8,54.4,29.96,SSW,202,2.0,7.0,74,0.00,,---,0.00,VWS V14.01,2013-04-23 17:30:00,
2013-04-23 10:39:00,63.4,55.0,29.96,SSW,200,3.0,8.0,73,0.00,,,0.00,weatherlink.com 1.10,2013-04-23 17:39:00,
2013-04-23 10:45:00,63.3,54.5,29.96,SSW,202,2.0,8.0,73,0.00,,---,0.00,VWS V14.01,2013-04-23 17:45:00,
2013-04-23 10:54:00,64.3,55.0,29.96,SW,229,1.0,8.0,71,0.00,,,0.00,weatherlink.com 1.10,2013-04-23 17:54:00,
2013-04-23 11:00:00,64.5,54.5,29.96,SSW,202,2.0,7.0,70,0.00,,---,0.00,VWS V14.01,2013-04-23 18:00:00,
2013-04-23 11:09:00,65.6,55.0,29.96,SSE,165,0.0,7.0,68,0.00,,,0.00,weatherlink.com 1.10,2013-04-23 18:09:00,
2013-04-23 11:15:00,65.5,54.7,29.96,SSE,158,2.0,7.0,68,0.00,,---,0.00,VWS V14.01,2013-04-23 18:15:00,
2013-04-23 11:24:00,64.7,54.0,29.96,WSW,257,2.0,9.0,69,0.00,,,0.00,weatherlink.com 1.10,2013-04-23 18:24:00,
2013-04-23 11:30:00,64.4,54.4,29.96,West,270,3.0,9.0,70,0.00,,---,0.00,VWS V14.01,2013-04-23 18:30:00,
2013-04-23 11:39:00,65.5,55.0,29.95,SSW,211,3.0,8.0,69,0.00,,,0.00,weatherlink.com 1.10,2013-04-23 18:39:00,
2013-04-23 11:45:00,65.9,55.0,29.95,SSW,202,2.0,8.0,68,0.00,,---,0.00,VWS V14.01,2013-04-23 18:45:00,
2013-04-23 11:54:00,66.2,55.0,29.95,West,260,1.0,6.0,67,0.00,,,0.00,weatherlink.com 1.10,2013-04-23 18:54:00,
2013-04-23 12:00:00,66.1,54.8,29.95,West,270,2.0,8.0,67,0.00,,---,0.00,VWS V14.01,2013-04-23 19:00:00,
2013-04-23 12:09:00,67.6,56.0,29.94,SSW,202,5.0,8.0,66,0.00,,,0.00,weatherlink.com 1.10,2013-04-23 19:09:00,
2013-04-23 12:15:00,67.4,55.2,29.94,SSW,202,3.0,8.0,65,0.00,,---,0.00,VWS V14.01,2013-04-23 19:15:00,
2013-04-23 12:24:00,67.6,56.0,29.93,SSW,203,1.0,6.0,66,0.00,,,0.00,weatherlink.com 1.10,2013-04-23 19:24:00,
2013-04-23 12:30:00,67.7,55.5,29.93,SSW,202,2.0,7.0,65,0.00,,---,0.00,VWS V14.01,2013-04-23 19:30:00,
2013-04-23 12:40:00,67.9,55.0,29.93,SW,229,1.0,8.0,64,0.00,,,0.00,weatherlink.com 1.10,2013-04-23 19:40:00,
2013-04-23 12:45:00,68.3,55.2,29.93,WSW,248,3.0,8.0,63,0.00,,---,0.00,VWS V14.01,2013-04-23 19:45:00,
2013-04-23 12:55:00,68.4,55.0,29.92,WSW,255,0.0,11.0,63,0.00,,,0.00,weatherlink.com 1.10,2013-04-23 19:55:00,
2013-04-23 13:00:00,68.3,55.2,29.92,SSW,202,4.0,12.0,63,0.00,,---,0.00,VWS V14.01,2013-04-23 20:00:00,
2013-04-23 13:10:00,68.2,55.0,29.92,SSW,200,7.0,9.0,63,0.00,,,0.00,weatherlink.com 1.10,2013-04-23 20:10:00,
2013-04-23 13:15:00,67.9,54.8,29.92,WSW,248,3.0,9.0,63,0.00,,---,0.00,VWS V14.01,2013-04-23 20:15:00,
2013-04-23 13:25:00,68.3,56.0,29.91,SSW,212,4.0,7.0,65,0.00,,,0.00,weatherlink.com 1.10,2013-04-23 20:25:00,
2013-04-23 13:30:00,69.0,56.3,29.91,SSW,202,2.0,7.0,64,0.00,,---,0.00,VWS V14.01,2013-04-23 20:30:00,
2013-04-23 13:40:00,70.0,56.0,29.90,SE,124,0.0,5.0,61,0.00,,,0.00,weatherlink.com 1.10,2013-04-23 20:40:00,
2013-04-23 13:45:00,70.3,55.8,29.91,ESE,112,2.0,7.0,60,0.00,,---,0.00,VWS V14.01,2013-04-23 20:45:00,
2013-04-23 13:55:00,69.1,55.0,29.90,SSW,201,4.0,11.0,62,0.00,,,0.00,weatherlink.com 1.10,2013-04-23 20:55:00,
2013-04-23 14:00:00,69.1,55.1,29.90,SSW,202,3.0,11.0,61,0.00,,---,0.00,VWS V14.01,2013-04-23 21:00:00,
2013-04-23 14:10:00,69.7,56.0,29.89,South,187,1.0,7.0,61,0.00,,,0.00,weatherlink.com 1.10,2013-04-23 21:10:00,
2013-04-23 14:15:00,69.9,55.8,29.89,South,180,2.0,8.0,61,0.00,,---,0.00,VWS V14.01,2013-04-23 21:15:00,
2013-04-23 14:25:00,70.1,55.0,29.89,SW,225,1.0,9.0,60,0.00,,,0.00,weatherlink.com 1.10,2013-04-23 21:25:00,
2013-04-23 14:30:00,70.3,55.8,29.89,SSW,202,3.0,9.0,60,0.00,,---,0.00,VWS V14.01,2013-04-23 21:30:00,
2013-04-23 14:40:00,70.4,56.0,29.88,South,169,6.0,9.0,61,0.00,,,0.00,weatherlink.com 1.10,2013-04-23 21:40:00,
2013-04-23 14:45:00,70.0,55.0,29.88,SSW,202,4.0,10.0,59,0.00,,---,0.00,VWS V14.01,2013-04-23 21:45:00,
2013-04-23 14:55:00,69.4,56.0,29.88,SSW,203,7.0,12.0,62,0.00,,,0.00,weatherlink.com 1.10,2013-04-23 21:55:00,
2013-04-23 15:00:00,69.4,55.4,29.88,SSW,202,4.0,12.0,61,0.00,,---,0.00,VWS V14.01,2013-04-23 22:00:00,
2013-04-23 15:10:00,69.5,56.0,29.87,SW,229,3.0,9.0,62,0.00,,,0.00,weatherlink.com 1.10,2013-04-23 22:10:00,
2013-04-23 15:15:00,69.4,55.8,29.87,SSW,202,4.0,9.0,62,0.00,,---,0.00,VWS V14.01,2013-04-23 22:15:00,
2013-04-23 15:25:00,70.2,56.0,29.86,South,178,2.0,8.0,60,0.00,,,0.00,weatherlink.com 1.10,2013-04-23 22:25:00,
2013-04-23 15:30:00,70.2,56.1,29.86,SSW,202,4.0,8.0,61,0.00,,---,0.00,VWS V14.01,2013-04-23 22:30:00,
2013-04-23 15:40:00,70.4,56.0,29.86,SSW,198,6.0,9.0,60,0.00,,,0.00,weatherlink.com 1.10,2013-04-23 22:40:00,
2013-04-23 15:45:00,70.6,55.6,29.86,SSW,202,4.0,10.0,59,0.00,,---,0.00,VWS V14.01,2013-04-23 22:45:00,
2013-04-23 15:55:00,70.7,56.0,29.85,SW,225,3.0,11.0,60,0.00,,,0.00,weatherlink.com 1.10,2013-04-23 22:55:00,
2013-04-23 16:00:00,70.6,56.1,29.85,SSW,202,4.0,11.0,60,0.00,,---,0.00,VWS V14.01,2013-04-23 23:00:00,
2013-04-23 16:10:00,69.6,55.0,29.85,WSW,250,5.0,10.0,61,0.00,,,0.00,weatherlink.com 1.10,2013-04-23 23:10:00,
2013-04-23 16:15:00,69.4,56.3,29.85,WSW,248,4.0,11.0,63,0.00,,---,0.00,VWS V14.01,2013-04-23 23:15:00,
2013-04-23 16:25:00,69.2,56.0,29.85,South,190,5.0,9.0,63,0.00,,,0.00,weatherlink.com 1.10,2013-04-23 23:25:00,
2013-04-23 16:34:00,69.4,56.3,29.85,WSW,248,4.0,11.0,63,0.00,,---,0.00,VWS V14.01,2013-04-23 23:34:00,
2013-04-23 16:39:00,69.0,56.3,29.84,SSW,194,5.0,8.0,64,0.00,,---,0.00,VWS V14.01,2013-04-23 23:39:00,
2013-04-23 16:44:00,68.7,56.5,29.85,SW,215,5.0,8.0,65,0.00,,---,0.00,VWS V14.01,2013-04-23 23:44:00,
2013-04-23 16:57:00,68.0,56.0,29.85,SSW,202,4.0,10.0,66,0.00,,,0.00,weatherlink.com 1.10,2013-04-23 23:57:00,
2013-04-23 17:00:00,67.9,55.7,29.84,SSW,202,5.0,10.0,65,0.00,,---,0.00,VWS V14.01,2013-04-24 00:00:00,
2013-04-23 17:12:00,67.3,55.0,29.84,SW,232,4.0,10.0,66,0.00,,,0.00,weatherlink.com 1.10,2013-04-24 00:12:00,
2013-04-23 17:15:00,67.3,56.0,29.85,SSW,202,5.0,10.0,67,0.00,,---,0.00,VWS V14.01,2013-04-24 00:15:00,
2013-04-23 17:27:00,66.7,56.0,29.85,SSW,202,5.0,9.0,68,0.00,,,0.00,weatherlink.com 1.10,2013-04-24 00:27:00,
2013-04-23 17:30:00,66.7,55.8,29.85,SSW,202,4.0,12.0,68,0.00,,---,0.00,VWS V14.01,2013-04-24 00:30:00,
2013-04-23 17:42:00,66.5,57.0,29.85,WSW,251,1.0,12.0,71,0.00,,,0.00,weatherlink.com 1.10,2013-04-24 00:42:00,
2013-04-23 17:45:00,66.3,56.6,29.85,SSW,202,5.0,12.0,71,0.00,,---,0.00,VWS V14.01,2013-04-24 00:45:00,
2013-04-23 17:57:00,65.9,57.0,29.85,West,262,5.0,10.0,73,0.00,,,0.00,weatherlink.com 1.10,2013-04-24 00:57:00,
2013-04-23 18:00:00,65.7,56.8,29.85,SSW,202,4.0,10.0,73,0.00,,---,0.00,VWS V14.01,2013-04-24 01:00:00,
2013-04-23 18:12:00,65.5,57.0,29.85,South,182,2.0,12.0,74,0.00,,,0.00,weatherlink.com 1.10,2013-04-24 01:12:00,
2013-04-23 18:15:00,65.4,56.9,29.85,SSW,202,5.0,11.0,74,0.00,,---,0.00,VWS V14.01,2013-04-24 01:15:00,
2013-04-23 18:27:00,65.2,57.0,29.85,SSW,194,4.0,9.0,75,0.00,,,0.00,weatherlink.com 1.10,2013-04-24 01:27:00,
2013-04-23 18:30:00,65.2,57.1,29.85,SSW,202,4.0,11.0,75,0.00,,---,0.00,VWS V14.01,2013-04-24 01:30:00,
2013-04-23 18:42:00,64.9,57.0,29.85,SW,216,5.0,9.0,76,0.00,,,0.00,weatherlink.com 1.10,2013-04-24 01:42:00,
2013-04-23 18:45:00,64.8,57.1,29.86,SW,225,3.0,9.0,76,0.00,,---,0.00,VWS V14.01,2013-04-24 01:45:00,
2013-04-23 18:57:00,63.8,56.0,29.86,WSW,238,2.0,8.0,77,0.00,,,0.00,weatherlink.com 1.10,2013-04-24 01:57:00,
2013-04-23 19:00:00,63.7,56.4,29.86,WSW,248,3.0,8.0,77,0.00,,---,0.00,VWS V14.01,2013-04-24 02:00:00,
2013-04-23 19:12:00,62.9,56.0,29.86,WSW,249,2.0,7.0,79,0.00,,,0.00,weatherlink.com 1.10,2013-04-24 02:12:00,
2013-04-23 19:15:00,62.8,56.2,29.86,WSW,248,3.0,8.0,79,0.00,,---,0.00,VWS V14.01,2013-04-24 02:15:00,
2013-04-23 19:27:00,62.1,56.0,29.86,SSW,202,0.0,7.0,80,0.00,,,0.00,weatherlink.com 1.10,2013-04-24 02:27:00,
2013-04-23 19:30:00,62.0,55.8,29.86,WSW,248,2.0,7.0,80,0.00,,---,0.00,VWS V14.01,2013-04-24 02:30:00,
2013-04-23 19:42:00,61.3,56.0,29.87,WSW,242,1.0,5.0,82,0.00,,,0.00,weatherlink.com 1.10,2013-04-24 02:42:00,
2013-04-23 19:45:00,61.2,55.7,29.87,WSW,248,1.0,5.0,82,0.00,,---,0.00,VWS V14.01,2013-04-24 02:45:00,
2013-04-23 20:00:00,60.6,55.4,29.87,WSW,248,2.0,7.0,83,0.00,,---,0.00,VWS V14.01,2013-04-24 03:00:00,
2013-04-23 20:12:00,60.2,55.0,29.88,WSW,247,0.0,3.0,83,0.00,,,0.00,weatherlink.com 1.10,2013-04-24 03:12:00,
2013-04-23 20:15:00,60.2,55.0,29.88,WSW,248,1.0,4.0,83,0.00,,---,0.00,VWS V14.01,2013-04-24 03:15:00,
2013-04-23 20:27:00,59.9,55.0,29.88,WSW,247,0.0,2.0,84,0.00,,,0.00,weatherlink.com 1.10,2013-04-24 03:27:00,
2013-04-23 20:30:00,59.8,54.6,29.88,WSW,248,0.0,2.0,83,0.00,,---,0.00,VWS V14.01,2013-04-24 03:30:00,
2013-04-23 20:42:00,59.6,54.0,29.89,WNW,283,0.0,2.0,83,0.00,,,0.00,weatherlink.com 1.10,2013-04-24 03:42:00,
2013-04-23 20:45:00,59.6,54.4,29.89,WNW,292,0.0,2.0,83,0.00,,---,0.00,VWS V14.01,2013-04-24 03:45:00,
2013-04-23 20:57:00,59.5,54.0,29.89,West,267,0.0,2.0,83,0.00,,,0.00,weatherlink.com 1.10,2013-04-24 03:57:00,
2013-04-23 21:00:00,59.5,54.3,29.89,NW,315,0.0,2.0,83,0.00,,---,0.00,VWS V14.01,2013-04-24 04:00:00,
2013-04-23 21:12:00,59.1,54.0,29.90,West,267,0.0,0.0,83,0.00,,,0.00,weatherlink.com 1.10,2013-04-24 04:12:00,
2013-04-23 21:15:00,59.1,54.0,29.90,West,270,0.0,1.0,83,0.00,,---,0.00,VWS V14.01,2013-04-24 04:15:00,
2013-04-23 21:27:00,58.4,54.0,29.90,West,267,0.0,0.0,84,0.00,,,0.00,weatherlink.com 1.10,2013-04-24 04:27:00,
2013-04-23 21:30:00,58.4,53.6,29.91,West,270,0.0,1.0,84,0.00,,---,0.00,VWS V14.01,2013-04-24 04:30:00,
2013-04-23 21:42:00,57.9,54.0,29.91,WSW,257,0.0,2.0,87,0.00,,,0.00,weatherlink.com 1.10,2013-04-24 04:42:00,
2013-04-23 21:45:00,57.8,54.0,29.91,West,270,0.0,2.0,87,0.00,,---,0.00,VWS V14.01,2013-04-24 04:45:00,
2013-04-23 21:57:00,57.8,54.0,29.91,WSW,240,0.0,2.0,88,0.00,,,0.00,weatherlink.com 1.10,2013-04-24 04:57:00,
2013-04-23 22:00:00,57.8,54.3,29.91,WSW,248,0.0,2.0,88,0.00,,---,0.00,VWS V14.01,2013-04-24 05:00:00,
2013-04-23 22:12:00,57.6,54.0,29.91,WSW,240,0.0,1.0,88,0.00,,,0.00,weatherlink.com 1.10,2013-04-24 05:12:00,
2013-04-23 22:15:00,57.6,54.1,29.91,WSW,248,0.0,1.0,88,0.00,,---,0.00,VWS V14.01,2013-04-24 05:15:00,
2013-04-23 22:27:00,57.2,54.0,29.91,WSW,240,0.0,1.0,88,0.00,,,0.00,weatherlink.com 1.10,2013-04-24 05:27:00,
2013-04-23 22:30:00,57.1,53.6,29.91,WSW,248,0.0,1.0,88,0.00,,---,0.00,VWS V14.01,2013-04-24 05:30:00,
2013-04-23 22:42:00,56.7,54.0,29.91,WSW,240,0.0,1.0,89,0.00,,,0.00,weatherlink.com 1.10,2013-04-24 05:42:00,
2013-04-23 22:45:00,56.6,53.4,29.92,WSW,248,0.0,1.0,89,0.00,,---,0.00,VWS V14.01,2013-04-24 05:45:00,
2013-04-23 22:57:00,56.5,54.0,29.92,WSW,240,0.0,1.0,90,0.00,,,0.00,weatherlink.com 1.10,2013-04-24 05:57:00,
2013-04-23 23:00:00,56.5,53.6,29.92,WSW,248,0.0,1.0,90,0.00,,---,0.00,VWS V14.01,2013-04-24 06:00:00,
2013-04-23 23:12:00,56.5,54.0,29.92,WSW,240,0.0,1.0,91,0.00,,,0.00,weatherlink.com 1.10,2013-04-24 06:12:00,
2013-04-23 23:15:00,56.5,53.9,29.92,WSW,248,0.0,1.0,91,0.00,,---,0.00,VWS V14.01,2013-04-24 06:15:00,
2013-04-23 23:27:00,57.2,54.0,29.92,WSW,240,0.0,2.0,90,0.00,,,0.00,weatherlink.com 1.10,2013-04-24 06:27:00,
2013-04-23 23:30:00,57.3,54.1,29.92,WSW,248,0.0,2.0,89,0.00,,---,0.00,VWS V14.01,2013-04-24 06:30:00,
2013-04-23 23:42:00,57.9,54.0,29.92,WSW,240,0.0,1.0,88,0.00,,,0.00,weatherlink.com 1.10,2013-04-24 06:42:00,
2013-04-23 23:45:00,57.9,54.4,29.92,WSW,248,0.0,2.0,88,0.00,,---,0.00,VWS V14.01,2013-04-24 06:45:00,
2013-04-23 23:57:00,58.3,55.0,29.93,WSW,240,0.0,1.0,87,0.00,,,0.00,weatherlink.com 1.10,2013-04-24 06:57:00,